Weather History for Pensacola, FL

Change the Weather History Date:

Tuesday, April 9, 2013

  Actual Average Record
Temperature  
Mean Temperature 73 °F 65 °F  
Max Temperature 78 °F 74 °F 85 °F (1965)
Min Temperature 68 °F 56 °F 39 °F (2000)
Degree Days  
Heating Degree Days 0 2  
Month to date heating degree days 17 26  
Since 1 July heating degree days 1155 1510  
Cooling Degree Days 8 2  
Month to date cooling degree days 17 18  
Year to date cooling degree days 72 65  
Growing Degree Days 22 (Base 50)    
Moisture  
Dew Point 64 °F    
Average Humidity 77    
Maximum Humidity 93    
Minimum Humidity 60    
Precipitation  
Precipitation 0.00 in 0.16 in 2.70 in (1958)
Month to date precipitation 1.34 1.41  
Year to date precipitation 17.16 16.91  
Snow  
Snow 0.00 in 0.00 in - ()
Month to date snowfall 0.0 0.0  
Since 1 July snowfall 0.0 0.0  
Snow Depth 0.00 in    
Sea Level Pressure  
Sea Level Pressure 30.08 in    
Wind  
Wind Speed 13 mph (SE)    
Max Wind Speed 18 mph    
Max Gust Speed 25 mph    
Visibility 10 miles    
Events      
T = Trace of Precipitation, MM = Missing Value Source: NWS Daily Summary

Daily Weather History Graph

Daily Weather History Graph

Search for Another Location

Airport:

Trip Planner

Search our weather history database for the weather conditions in past years. The results will help you decide how hot, cold, wet, or windy it might be!

Date:

Astronomy

Apr. 09, 2013 Rise Set
Actual Time 6:28 AM CDT 7:12 PM CDT
Civil Twilight 6:03 AM CDT 7:37 PM CDT
Nautical Twilight 5:34 AM CDT 8:06 PM CDT
Astronomical Twilight 5:05 AM CDT 8:35 PM CDT
Moon 5:48 AM CDT (4/9) 6:47 PM CDT (4/9)
Length of Visible Light 13h 33m
Length of Day
12h 44m
Waning Crescent, 1% of the Moon is Illuminated
Apr 9
Waning Crescent
Apr 10
New
Apr 18
First Quarter
Apr 25
Full
May 2
Last Quarter

Hourly Weather History & Observations

Time (CDT) Temp. Dew Point Humidity Pressure Visibility Wind Dir Wind Speed Gust Speed Precip Events Conditions
12:48 AM 68.0 °F 66.2 °F 94% 30.05 in 10.0 mi SE 8.1 mph - N/A   Scattered Clouds
12:53 AM 68.0 °F 66.0 °F 93% 30.06 in 10.0 mi SE 9.2 mph - N/A   Scattered Clouds
1:53 AM 68.0 °F 66.0 °F 93% 30.04 in 10.0 mi SE 9.2 mph - N/A   Clear
2:53 AM 69.1 °F 66.0 °F 90% 30.01 in 10.0 mi SE 11.5 mph - N/A   Clear
3:53 AM 69.1 °F 66.0 °F 90% 29.99 in 10.0 mi SE 10.4 mph - N/A   Clear
4:53 AM 69.1 °F 66.0 °F 90% 30.00 in 10.0 mi SE 11.5 mph - N/A   Clear
5:53 AM 69.1 °F 66.0 °F 90% 30.02 in 10.0 mi SE 9.2 mph - N/A   Clear
6:53 AM 68.0 °F 66.0 °F 93% 30.04 in 10.0 mi SE 13.8 mph - N/A   Clear
7:53 AM 70.0 °F 64.9 °F 84% 30.06 in 10.0 mi SE 16.1 mph 21.9 mph N/A   Clear
8:53 AM 73.0 °F 63.0 °F 71% 30.08 in 10.0 mi SE 12.7 mph - N/A   Clear
9:53 AM 75.0 °F 61.0 °F 62% 30.10 in 10.0 mi ESE 16.1 mph 20.7 mph N/A   Clear
10:53 AM 75.0 °F 62.1 °F 64% 30.13 in 10.0 mi SE 13.8 mph - N/A   Mostly Cloudy
11:53 AM 75.9 °F 62.1 °F 62% 30.14 in 10.0 mi SE 17.3 mph - N/A   Scattered Clouds
12:53 PM 77.0 °F 63.0 °F 62% 30.13 in 10.0 mi ESE 15.0 mph - N/A   Scattered Clouds
1:53 PM 77.0 °F 64.9 °F 66% 30.12 in 10.0 mi SE 11.5 mph - N/A   Overcast
2:53 PM 75.9 °F 66.0 °F 71% 30.11 in 10.0 mi ESE 13.8 mph - N/A   Overcast
3:53 PM 75.0 °F 66.0 °F 73% 30.09 in 10.0 mi SE 13.8 mph - N/A   Mostly Cloudy
4:53 PM 75.0 °F 66.0 °F 73% 30.08 in 10.0 mi SE 15.0 mph 20.7 mph N/A   Scattered Clouds
5:53 PM 73.9 °F 64.9 °F 73% 30.09 in 10.0 mi SE 13.8 mph - N/A   Mostly Cloudy
6:53 PM 71.1 °F 64.0 °F 78% 30.08 in 10.0 mi ESE 12.7 mph - N/A   Scattered Clouds
7:53 PM 70.0 °F 64.0 °F 81% 30.09 in 10.0 mi ESE 12.7 mph - N/A   Partly Cloudy
8:53 PM 69.1 °F 64.0 °F 84% 30.10 in 10.0 mi SE 12.7 mph - N/A   Clear
9:53 PM 70.0 °F 61.0 °F 73% 30.10 in 10.0 mi SE 11.5 mph - N/A   Mostly Cloudy
10:53 PM 70.0 °F 62.1 °F 76% 30.10 in 10.0 mi SE 11.5 mph - N/A   Overcast
11:53 PM 69.1 °F 61.0 °F 75% 30.08 in 10.0 mi SE 11.5 mph - N/A   Clear